Temp
32 34 34 33 34 34 32 33 27 30 30 37 42 45 46 46 44 44 46 47 48 48 46 44 44 44 45 43 41 41 38 36 35 34 34 33 32 31 30 30 29 26 26 25
23 31 33 30 34 34 34 35 34 35 35 45 48 48 46 46 46 46 47 49 50 52 50 45 45 45 44 42 41 40 38 36 35 34 34 33 33 32 31 30 30 30 29 28
20 29 29 25 31 33 35 38 36 29 37 44 43 45 45 46 47 47 48 47 47 49 53 53 47 47 43 42 42 40 38 36 35 35 34 33 33 31 30 29 29 29 29 29
22 26 15 33 40 39 36 39 40 40 41 43 43 42 42 43 43 45 46 47 47 44 49 51 50 47 44 43 41 39 37 36 36 34 33 33 32 30 30 29 29 29 29 30
21 23 29 33 40 38 34 34 39 38 40 40 41 42 41 45 46 45 44 45 45 44 43 44 45 44 42 41 40 38 36 36 35 35 33 32 31 30 30 29 29 28 29 29
24 21 17 31 41 45 42 27 39 39 37 38 39 27 33 42 43 43 45 44 44 44 44 43 43 42 40 39 38 38 36 36 37 37 35 33 32 30 30 30 30 31 29 29
23 22 27 39 41 45 26 29 39 41 40 39 37 38 42 42 42 43 45 45 45 42 41 42 42 41 39 39 37 39 38 38 37 37 35 34 32 31 29 29 29 29 27 28
22 19 16 36 37 31 35 41 41 41 40 40 42 42 41 42 41 42 43 44 43 41 41 42 42 42 39 37 39 39 39 38 35 35 36 34 32 31 31 31 29 27 25 25
24 23 37 35 36 42 43 40 40 40 42 42 42 42 42 42 42 42 43 42 42 40 40 42 43 43 38 38 39 40 38 36 33 35 36 35 32 31 30 30 29 27 26 24
26 33 33 35 40 43 45 42 43 42 41 40 40 41 41 41 41 41 42 41 39 39 39 39 42 42 41 40 41 39 37 36 35 34 34 33 33 32 30 29 28 27 26 24
28 32 34 40 43 45 44 45 44 44 43 42 40 41 41 41 40 41 42 42 41 40 40 39 38 38 40 40 40 38 36 36 35 35 32 32 31 30 30 31 31 28 27 25
26 36 35 38 43 45 44 43 45 44 43 44 42 42 42 40 41 41 42 42 41 41 41 40 37 37 38 39 39 37 35 35 34 33 31 31 30 29 34 32 33 33 32 28
33 37 38 41 43 45 43 43 44 43 43 43 44 42 41 41 42 42 43 42 42 41 40 39 37 36 38 39 38 36 35 35 34 32 30 29 29 29 26 29 34 33 32 31
42 41 38 40 38 42 43 43 45 43 43 43 43 43 41 41 42 42 42 44 46 43 40 39 37 36 37 38 37 35 35 34 33 31 30 30 29 29 27 26 25 25 31 31
41 43 41 43 43 41 43 42 42 42 44 45 44 41 39 40 40 40 41 43 42 40 40 39 36 33 36 36 34 33 32 31 31 29 29 29 28 27 27 26 26 24 23 26
40 40 40 40 41 40 40 38 37 39 40 40 41 39 39 40 40 40 41 40 37 35 36 35 34 34 35 35 33 31 31 30 29 29 27 27 27 26 25 25 25 25 26 27
36 34 35 36 38 38 39 38 35 34 34 34 34 35 38 38 38 38 39 38 36 35 35 34 32 34 34 34 33 31 30 29 28 29 28 27 27 26 25 24 24 24 23 20
38 36 35 37 37 37 37 36 35 35 34 34 33 30 29 34 36 36 35 33 33 31 32 32 33 33 33 32 32 31 30 29 29 28 28 27 27 27 25 24 24 23 18 20
38 35 34 36 36 36 36 35 35 34 33 32 31 28 25 28 31 32 32 32 31 29 26 28 31 33 31 31 32 32 31 30 29 29 29 27 26 26 25 25 23 22 22 21
36 37 35 33 35 34 34 34 34 33 33 32 32 32 31 33 32 33 32 30 30 29 28 29 31 32 31 31 32 32 31 30 29 28 26 27 26 25 24 24 24 23 23 22
34 34 33 32 30 32 32 32 32 32 33 33 32 31 31 32 32 33 32 29 28 29 30 30 31 31 32 30 31 31 30 29 28 27 26 25 24 24 24 24 25 25 25 24
33 32 32 32 30 27 27 31 31 32 32 33 33 33 32 30 28 27 29 29 30 30 31 30 31 30 30 29 30 29 29 29 27 27 25 24 25 25 25 25 24 25 26 27
34 34 34 32 31 31 27 25 27 28 31 31 32 30 29 30 29 29 28 30 31 29 30 29 29 28 28 28 27 27 27 26 26 25 25 25 25 26 25 25 25 24 24 22
33 32 33 33 31 33 32 33 27 30 29 30 31 30 31 29 29 26 26 31 31 24 23 24 25 25 23 27 25 24 25 24 24 26 26 25 26 25 24 23 20 18 19 18
32 32 32 31 32 33 33 34 31 28 29 31 31 31 31 31 29 24 23 28 28 22 20 18 20 21 25 25 25 26 26 26 26 26 25 25 24 22 20 19 18 16 15 14
32 33 33 32 31 33 33 34 32 31 29 27 29 25 20 25 25 23 22 22 23 22 22 22 22 25 27 27 27 27 26 25 26 25 24 22 19 16 15 14 15 15 14 13
30 29 30 30 31 33 33 33 32 32 30 28 28 27 24 23 21 21 19 21 22 24 26 25 27 27 27 26 23 26 25 23 22 20 18 16 15 15 14 13 13 12 11 10
MSLP
1012.82 1011.80 1010.78 1009.77 1009.09 1008.04 1008.01 1007.33 1006.89 1006.10 1005.82 1004.31 1004.26 1003.82 1003.70 1003.58 1003.86 1003.93 1004.25 1004.05 1004.31 1004.34 1005.10 1005.77 1006.70 1007.40 1008.48 1009.51 1010.51 1011.24 1012.47 1013.44 1014.66 1015.54 1016.04 1017.03 1018.45 1019.01 1019.90 1021.09 1021.85 1022.32 1022.90 1023.56
1012.92 1011.27 1010.17 1008.82 1007.50 1006.83 1006.64 1006.02 1005.70 1004.89 1004.08 1003.27 1003.00 1003.02 1002.66 1002.86 1002.92 1002.92 1003.09 1003.26 1003.58 1003.82 1004.32 1005.09 1006.01 1006.67 1007.86 1008.63 1009.93 1011.22 1012.30 1013.70 1014.61 1015.52 1016.31 1017.18 1018.60 1019.17 1019.78 1021.02 1021.82 1022.50 1022.64 1023.30
1011.88 1010.60 1009.48 1007.60 1005.52 1005.19 1004.71 1004.38 1004.28 1003.98 1002.66 1002.55 1002.66 1002.38 1002.26 1002.11 1002.32 1002.40 1002.59 1002.87 1003.30 1002.89 1002.26 1002.76 1004.53 1005.39 1006.56 1007.74 1009.23 1010.65 1011.97 1013.37 1014.28 1015.07 1016.16 1017.20 1018.35 1019.64 1020.44 1020.72 1021.51 1022.48 1022.58 1023.07
1011.48 1010.33 1008.65 1005.29 1004.15 1004.15 1003.76 1003.18 1003.25 1002.98 1002.45 1002.27 1002.20 1002.48 1002.54 1002.53 1002.69 1002.80 1003.02 1002.95 1002.89 1002.39 1001.50 1001.89 1003.21 1004.63 1006.12 1007.54 1008.84 1010.24 1011.62 1012.89 1014.17 1014.99 1016.26 1017.35 1018.31 1019.43 1020.26 1020.85 1021.45 1021.90 1022.74 1023.29
1010.77 1009.02 1006.78 1005.03 1003.98 1003.44 1003.29 1002.76 1002.69 1002.42 1002.12 1002.28 1002.57 1002.77 1003.13 1002.61 1002.71 1002.73 1003.02 1003.05 1002.73 1002.64 1002.63 1002.93 1003.49 1004.59 1005.97 1007.18 1008.76 1009.73 1011.12 1012.24 1013.54 1014.34 1015.58 1016.74 1017.98 1019.17 1020.05 1020.60 1021.14 1021.81 1022.61 1023.62
1010.49 1008.00 1006.44 1004.38 1003.45 1003.06 1003.17 1002.96 1002.25 1002.12 1002.10 1002.60 1002.93 1003.31 1003.29 1002.97 1003.10 1003.22 1003.19 1003.07 1002.97 1002.83 1002.63 1002.88 1003.54 1004.41 1005.57 1006.40 1008.10 1009.25 1010.28 1011.61 1012.87 1014.19 1014.88 1016.23 1017.41 1018.56 1019.58 1020.25 1020.67 1021.65 1022.57 1023.65
1009.79 1008.40 1006.48 1005.02 1004.25 1003.51 1004.03 1003.93 1002.63 1002.50 1002.50 1002.74 1002.87 1002.78 1002.55 1002.86 1003.25 1003.18 1002.85 1002.54 1002.46 1002.64 1002.82 1003.10 1003.60 1004.46 1005.60 1006.90 1007.54 1008.95 1010.39 1011.79 1012.92 1013.75 1014.83 1016.01 1017.18 1018.26 1019.26 1020.06 1020.83 1021.75 1022.66 1023.48
1010.53 1008.75 1007.27 1006.38 1005.36 1004.73 1004.69 1003.85 1003.66 1002.96 1002.85 1003.02 1002.69 1002.71 1002.75 1002.92 1003.15 1003.16 1002.97 1002.72 1002.76 1002.87 1003.22 1003.55 1004.29 1004.95 1005.88 1006.98 1007.89 1009.08 1010.47 1011.79 1012.79 1013.82 1014.91 1015.96 1016.90 1018.06 1019.09 1019.80 1020.77 1021.79 1022.69 1023.66
1012.37 1009.43 1007.41 1007.45 1006.12 1004.92 1004.23 1003.79 1003.47 1003.46 1002.81 1002.87 1002.81 1002.69 1002.85 1002.90 1002.94 1003.12 1003.00 1003.01 1003.05 1003.36 1003.77 1004.02 1004.55 1005.05 1005.91 1007.18 1008.13 1009.22 1010.23 1011.56 1012.72 1013.86 1014.80 1015.66 1016.65 1017.74 1018.61 1019.55 1020.50 1021.56 1022.41 1023.40
1011.55 1008.69 1008.36 1006.78 1005.71 1004.28 1003.35 1003.17 1002.82 1002.93 1002.81 1002.71 1002.81 1002.58 1002.85 1002.88 1002.92 1003.05 1003.02 1003.13 1003.24 1003.95 1004.17 1004.39 1004.93 1005.35 1006.03 1007.05 1008.00 1009.02 1010.19 1011.43 1012.54 1013.51 1014.56 1015.53 1016.51 1017.30 1018.30 1019.21 1020.16 1021.15 1022.14 1023.07
1010.25 1008.89 1008.09 1006.32 1005.61 1004.67 1003.68 1003.12 1002.76 1002.20 1002.07 1002.07 1002.36 1002.40 1002.38 1002.45 1002.52 1002.70 1002.85 1003.03 1003.36 1003.94 1004.19 1004.64 1005.20 1005.97 1006.55 1007.22 1008.02 1009.13 1010.26 1011.32 1012.32 1013.33 1014.33 1015.47 1016.47 1017.20 1017.97 1018.81 1019.36 1020.32 1021.32 1022.23
1009.34 1008.68 1008.44 1006.89 1005.50 1004.62 1004.03 1003.17 1002.41 1002.30 1001.91 1001.54 1001.70 1001.78 1001.68 1001.91 1002.03 1002.32 1002.57 1002.82 1003.11 1003.54 1004.12 1004.97 1005.42 1006.26 1006.94 1007.54 1008.18 1009.07 1010.18 1011.23 1012.22 1013.33 1014.52 1015.53 1016.50 1017.46 1018.02 1018.61 1019.30 1019.97 1020.70 1021.29
1009.29 1008.46 1007.50 1006.23 1005.34 1004.56 1004.18 1003.16 1002.38 1002.05 1001.59 1001.49 1001.03 1001.22 1001.39 1001.55 1001.56 1001.68 1001.98 1002.33 1002.56 1003.04 1003.79 1004.52 1005.45 1006.22 1006.96 1007.59 1008.24 1009.11 1009.91 1011.03 1012.14 1013.23 1014.34 1015.43 1016.40 1017.19 1018.17 1019.17 1019.65 1020.03 1020.54 1021.33
1007.91 1007.19 1006.47 1005.92 1005.35 1004.54 1003.70 1002.71 1002.02 1001.46 1000.97 1000.77 1000.81 1000.85 1001.11 1001.49 1001.54 1001.65 1001.89 1001.91 1002.24 1002.87 1003.81 1004.53 1005.36 1006.17 1006.95 1007.63 1008.42 1009.29 1010.18 1011.03 1011.99 1013.07 1014.17 1015.23 1016.11 1016.98 1017.80 1018.66 1019.64 1020.43 1020.94 1021.34
1007.52 1007.13 1006.75 1006.14 1005.44 1004.68 1003.76 1002.75 1001.70 1001.27 1001.02 1000.83 1000.87 1001.15 1001.39 1001.49 1001.71 1001.96 1001.96 1001.79 1002.05 1002.84 1003.86 1004.68 1005.60 1006.50 1007.13 1007.70 1008.56 1009.53 1010.47 1011.43 1012.28 1013.27 1014.22 1015.10 1016.01 1016.82 1017.57 1018.32 1019.09 1020.09 1020.87 1021.34
1007.65 1007.14 1006.84 1006.46 1005.75 1005.03 1004.36 1003.63 1003.18 1002.81 1002.53 1002.12 1001.91 1001.81 1001.70 1001.69 1002.06 1002.38 1002.67 1002.81 1003.35 1003.87 1004.37 1004.94 1005.71 1006.63 1007.34 1008.03 1008.92 1009.90 1010.71 1011.48 1012.47 1013.41 1014.33 1015.20 1016.03 1016.83 1017.55 1018.21 1018.99 1019.77 1020.40 1020.87
1008.09 1007.77 1007.33 1006.86 1006.30 1005.70 1005.17 1004.98 1004.70 1004.29 1003.79 1003.38 1003.13 1002.94 1002.25 1002.36 1002.50 1002.75 1003.07 1003.37 1003.65 1004.19 1004.66 1005.32 1006.16 1006.88 1007.44 1008.18 1008.98 1009.97 1010.85 1011.81 1012.55 1013.52 1014.39 1015.16 1015.94 1016.70 1017.49 1018.20 1018.86 1019.51 1020.06 1020.36
1009.02 1008.87 1008.51 1007.76 1006.92 1006.32 1005.87 1005.67 1005.41 1005.09 1004.74 1004.33 1003.81 1003.32 1002.88 1002.77 1002.62 1002.93 1003.31 1003.81 1004.34 1005.01 1005.24 1005.59 1006.18 1006.93 1007.72 1008.53 1009.22 1010.04 1010.86 1011.83 1012.64 1013.41 1014.29 1015.14 1015.86 1016.55 1017.32 1018.03 1018.64 1019.25 1019.90 1020.38
1009.11 1008.94 1008.65 1008.09 1007.56 1007.03 1006.46 1006.24 1006.03 1005.74 1005.36 1004.91 1004.31 1003.84 1003.55 1003.23 1003.08 1003.25 1003.59 1004.18 1004.74 1005.34 1005.83 1006.05 1006.52 1007.04 1007.89 1008.58 1009.21 1009.97 1010.83 1011.79 1012.66 1013.46 1014.13 1014.91 1015.72 1016.37 1017.05 1017.70 1018.33 1018.89 1019.51 1020.18
1009.31 1009.04 1008.93 1008.65 1008.05 1007.64 1007.10 1006.77 1006.41 1006.07 1005.66 1005.21 1004.82 1004.39 1004.00 1003.89 1003.73 1003.86 1004.17 1004.85 1005.01 1005.09 1005.66 1006.24 1006.77 1007.38 1007.99 1008.64 1009.20 1009.96 1010.79 1011.60 1012.44 1013.34 1014.09 1014.80 1015.44 1016.10 1016.69 1017.30 1017.91 1018.51 1019.07 1019.64
1009.65 1009.32 1009.03 1008.85 1008.54 1008.02 1007.76 1007.34 1006.86 1006.50 1006.08 1005.67 1005.35 1005.06 1004.84 1004.66 1004.51 1004.57 1004.82 1005.17 1005.66 1005.77 1006.04 1006.47 1006.97 1007.66 1008.18 1008.89 1009.43 1010.13 1010.85 1011.61 1012.33 1013.05 1013.82 1014.51 1015.22 1015.85 1016.44 1016.97 1017.52 1018.00 1018.52 1019.04
1009.84 1009.63 1009.33 1008.98 1008.75 1008.40 1007.85 1007.60 1007.32 1006.95 1006.52 1006.15 1005.93 1005.73 1005.62 1005.60 1005.52 1005.53 1005.64 1005.71 1006.09 1006.19 1006.46 1006.93 1007.34 1007.75 1008.43 1009.00 1009.58 1010.24 1010.88 1011.50 1012.16 1012.85 1013.56 1014.20 1014.85 1015.52 1016.12 1016.67 1017.16 1017.60 1018.03 1018.50
1009.83 1009.53 1009.28 1009.01 1008.79 1008.44 1007.91 1007.58 1007.41 1007.23 1006.91 1006.63 1006.43 1006.26 1006.24 1006.23 1006.22 1006.22 1006.26 1006.39 1006.41 1006.78 1007.16 1007.43 1007.71 1008.17 1008.69 1009.23 1009.86 1010.41 1010.97 1011.57 1012.19 1012.77 1013.35 1013.95 1014.55 1015.16 1015.76 1016.31 1016.82 1017.34 1017.93 1018.58
1009.91 1009.57 1009.18 1008.77 1008.47 1008.30 1007.97 1007.49 1007.32 1007.24 1007.15 1006.83 1006.64 1006.51 1006.48 1006.57 1006.67 1006.63 1006.57 1006.58 1006.72 1007.33 1007.74 1007.91 1008.26 1008.63 1008.95 1009.50 1010.06 1010.63 1011.15 1011.76 1012.38 1012.86 1013.35 1013.86 1014.45 1015.02 1015.63 1016.23 1016.88 1017.42 1018.02 1018.68
1009.93 1009.53 1009.09 1008.77 1008.44 1008.12 1007.86 1007.51 1007.13 1007.01 1006.94 1006.84 1006.68 1006.61 1006.61 1006.67 1006.84 1006.65 1006.76 1007.02 1007.21 1007.77 1008.13 1008.12 1008.45 1008.83 1009.14 1009.64 1010.13 1010.66 1011.17 1011.66 1012.22 1012.84 1013.45 1013.98 1014.57 1015.14 1015.73 1016.29 1016.90 1017.55 1018.23 1018.87
1010.18 1009.71 1009.29 1008.89 1008.52 1008.08 1007.72 1007.36 1007.08 1006.80 1006.79 1006.89 1006.82 1006.83 1006.77 1006.79 1006.89 1006.91 1006.94 1007.16 1007.45 1007.75 1008.05 1008.25 1008.56 1008.83 1009.12 1009.59 1010.05 1010.53 1011.04 1011.68 1012.25 1012.84 1013.41 1014.07 1014.72 1015.40 1016.03 1016.66 1017.29 1017.89 1018.54 1019.18
1010.51 1009.95 1009.43 1008.94 1008.42 1008.04 1007.64 1007.24 1006.91 1006.62 1006.35 1006.51 1006.72 1006.70 1006.68 1006.79 1007.01 1007.22 1007.26 1007.35 1007.55 1007.74 1007.80 1008.05 1008.26 1008.60 1009.04 1009.54 1010.01 1010.48 1010.99 1011.63 1012.21 1012.95 1013.66 1014.36 1015.01 1015.67 1016.32 1016.94 1017.59 1018.21 1018.85 1019.48
Wind_Speed
16 21 25 27 29 29 23 20 17 12 10 21 16 18 15 14 11 11 11 10 9 9 8 7 10 12 12 11 11 12 12 11 12 11 12 13 12 12 11 9 8 8 9 6
17 24 24 29 30 26 21 24 25 23 24 17 19 14 15 12 10 11 13 9 13 16 11 14 16 15 13 14 14 13 13 12 12 13 13 13 12 12 13 10 9 8 10 9
15 20 22 19 21 18 18 20 11 14 21 14 11 10 10 14 13 12 9 7 7 14 19 15 16 18 20 18 15 15 15 14 14 15 15 14 13 11 9 11 10 8 9 9
14 13 19 7 3 8 14 14 9 17 15 11 9 1 6 5 3 3 5 8 6 7 5 6 12 14 15 17 18 16 15 15 14 15 14 13 13 12 12 10 11 10 8 8
7 11 13 14 14 7 7 8 3 7 6 3 7 4 4 2 5 5 5 7 4 3 1 5 12 14 17 17 16 16 17 17 16 16 16 15 14 13 11 11 10 9 8 7
9 4 6 3 5 7 4 5 4 6 3 8 3 3 5 5 3 7 7 5 4 5 3 8 11 16 17 18 18 18 17 17 16 15 16 16 15 14 11 10 12 9 9 7
11 6 5 7 10 8 2 5 1 4 4 7 5 5 3 6 6 5 6 7 4 3 0 5 11 15 15 15 17 14 14 14 14 14 14 13 13 11 11 10 11 9 9 7
5 5 5 17 16 3 3 6 6 3 3 4 4 3 4 6 7 6 7 6 3 2 4 8 10 11 12 13 13 14 15 15 14 14 11 11 14 12 12 11 11 9 9 6
4 8 16 17 13 11 10 7 5 6 6 5 5 6 5 6 6 5 5 4 2 5 5 7 10 12 14 13 15 16 16 15 14 14 13 13 13 12 11 11 9 9 8 7
8 6 11 20 13 12 8 7 8 8 8 4 7 7 7 8 6 6 3 2 4 6 7 9 8 10 11 15 16 16 15 15 14 14 13 12 9 10 9 9 9 8 8 7
7 14 11 13 14 13 18 15 13 9 7 8 7 9 9 8 7 7 5 3 7 7 7 9 10 9 12 14 15 15 14 13 13 11 12 11 8 9 9 9 11 10 9 9
7 14 13 17 20 20 11 8 7 7 8 8 7 9 8 7 7 6 7 5 6 7 9 9 11 12 12 13 15 15 13 11 10 10 9 8 8 7 11 14 18 18 18 13
15 19 22 21 19 12 11 13 12 8 10 9 7 7 5 6 5 6 6 7 8 11 11 12 12 12 12 12 13 14 13 12 10 10 9 9 9 9 9 5 12 16 19 17
11 7 8 6 11 17 16 17 15 11 10 7 8 3 4 4 2 4 5 8 9 11 12 13 13 13 12 12 12 11 11 14 10 9 9 9 8 8 8 10 9 5 10 12
9 7 7 10 11 12 13 11 7 7 6 3 3 5 5 6 5 3 4 4 10 12 12 12 11 10 11 11 11 12 10 8 8 8 8 8 7 7 7 7 8 7 3 5
10 10 11 11 13 14 12 15 13 11 9 8 7 5 3 5 6 6 7 9 8 8 10 11 11 11 11 11 12 9 9 13 10 8 8 8 7 7 6 6 6 7 7 7
10 14 15 13 10 13 10 9 8 9 10 9 9 10 4 5 5 6 7 8 5 6 8 10 10 10 11 12 12 8 7 8 11 8 8 7 7 7 6 6 6 6 5 5
8 7 7 10 10 10 9 10 10 11 10 12 11 10 4 8 9 7 6 6 7 5 3 7 11 11 10 10 10 8 8 8 8 8 7 7 7 7 7 7 6 6 3 4
10 9 11 12 11 10 7 7 8 8 8 7 8 7 4 1 2 2 6 7 7 7 4 6 11 13 11 10 11 8 8 9 7 7 7 7 6 6 7 7 7 6 6 6
10 8 10 11 12 10 9 7 8 7 6 6 5 4 5 5 3 5 5 4 1 2 8 9 10 9 10 11 12 8 8 9 9 7 7 7 7 7 6 7 7 7 7 7
10 9 9 12 10 9 7 7 7 7 7 6 6 6 5 5 5 5 5 4 3 4 9 10 8 7 7 8 7 7 7 7 8 8 8 7 7 6 6 6 6 6 6 6
6 7 9 9 9 8 6 6 6 6 5 5 4 4 4 4 4 5 4 3 3 6 6 5 5 8 8 9 6 7 7 7 7 6 6 6 6 6 6 6 6 5 5 5
5 5 6 7 8 9 8 5 5 5 5 4 4 3 2 1 1 2 2 2 3 5 4 4 7 8 10 5 5 6 6 6 6 5 5 5 5 5 5 6 5 5 5 5
5 6 6 5 5 6 8 9 5 4 4 4 4 2 1 1 2 1 0 4 5 4 4 5 7 9 7 6 5 5 6 5 5 5 5 6 5 4 4 5 4 4 5 6
7 6 5 6 6 5 7 7 5 4 4 4 3 3 3 2 3 2 3 4 6 4 3 5 7 7 5 5 5 5 6 5 5 5 5 5 5 5 4 5 5 5 5 5
8 6 6 6 5 4 5 5 5 4 2 3 3 2 1 2 1 0 2 4 4 5 4 5 5 5 6 6 6 6 6 6 6 5 6 5 6 5 5 6 6 6 6 6
7 7 6 6 4 5 6 6 5 6 4 4 4 3 3 2 2 1 1 2 2 3 4 4 6 6 6 6 5 6 6 5 6 6 5 6 5 6 6 6 6 6 6 6
Wind_Direction
274 277 273 265 265 265 261 259 264 281 266 252 261 265 260 224 205 204 222 218 220 225 217 198 191 179 180 170 166 155 151 145 151 145 136 129 137 134 129 135 137 134 127 115
282 275 272 267 266 253 250 265 272 257 254 262 267 257 244 213 219 228 225 223 221 228 192 185 188 184 180 171 164 154 150 151 146 141 139 141 144 143 137 133 139 148 143 136
271 279 290 269 244 230 244 243 246 243 249 274 266 251 239 228 221 234 257 251 248 254 228 195 193 185 185 173 158 159 156 154 154 151 148 145 138 136 134 139 139 149 141 141
270 290 274 251 302 239 233 260 247 250 258 262 258 6 77 55 104 137 249 280 280 322 305 204 188 177 161 162 163 162 155 154 157 150 146 145 144 152 156 154 155 148 144 149
251 248 288 298 277 250 200 261 195 239 254 163 114 75 356 146 212 202 227 260 283 295 240 165 164 157 157 157 163 159 162 162 163 155 154 153 157 159 157 150 143 142 146 153
281 275 246 259 344 343 348 274 267 240 242 135 148 104 240 215 223 235 239 232 247 301 284 159 160 156 156 156 165 173 168 163 161 163 157 160 158 157 158 159 147 153 143 161
269 263 290 329 331 321 250 291 23 11 114 156 177 199 181 153 226 250 265 279 298 29 190 151 151 153 158 166 173 159 151 156 158 154 152 151 145 145 146 151 147 150 146 149
324 277 291 355 314 338 297 301 295 236 214 227 227 202 183 192 222 225 259 282 293 93 105 128 146 154 153 162 150 144 152 149 144 149 149 149 147 148 151 150 144 142 138 138
259 273 310 312 290 275 259 265 272 277 263 245 238 213 221 235 234 219 234 261 179 149 116 137 152 155 147 155 150 150 146 148 148 152 154 151 148 146 143 151 152 155 155 157
321 248 307 307 295 292 281 280 279 252 260 231 244 240 228 246 241 231 217 236 148 147 148 145 154 156 148 150 149 146 145 146 148 148 148 149 146 150 150 156 155 157 156 164
257 273 288 301 317 288 283 298 293 262 232 231 226 233 221 236 229 226 207 202 167 174 163 158 138 139 148 147 146 144 145 147 150 149 149 149 149 155 158 166 166 163 170 166
281 293 297 290 299 303 301 291 290 281 266 243 204 231 233 238 229 202 204 191 171 162 156 156 140 143 144 148 148 145 145 147 150 145 144 146 145 150 167 170 177 181 171 172
299 285 282 279 285 288 293 287 287 274 258 258 253 224 233 241 243 208 185 189 191 177 162 150 144 143 150 151 149 150 148 150 146 145 143 148 154 155 149 158 181 175 173 180
298 312 295 295 299 302 296 289 276 270 252 227 240 212 233 204 186 204 227 222 202 155 154 150 145 146 150 148 146 143 144 148 146 142 145 152 156 158 152 151 155 157 182 184
306 313 301 306 317 321 327 322 303 323 311 284 274 253 182 177 163 113 55 67 127 141 140 139 138 140 145 142 137 137 137 140 138 134 143 142 141 142 145 148 152 152 125 169
331 331 340 334 338 343 351 1 5 0 355 345 324 310 246 148 133 125 110 104 132 140 140 143 146 148 143 137 134 132 137 137 139 138 135 137 140 140 141 144 147 158 169 176
343 338 336 336 335 334 351 349 347 343 337 344 334 319 211 161 145 147 149 151 155 155 153 146 145 147 143 142 141 140 133 137 138 132 145 149 149 150 150 152 157 164 168 169
337 326 315 313 335 336 348 354 348 345 340 326 322 314 242 182 187 179 152 123 114 89 117 139 145 141 138 140 136 135 135 140 144 146 144 148 155 152 155 160 164 166 145 149
340 347 347 343 346 339 350 347 344 331 323 328 340 335 304 7 123 134 132 143 147 152 200 139 143 143 140 140 138 138 139 142 142 146 154 145 145 153 159 166 170 169 159 159
340 350 352 343 339 345 339 338 330 329 334 335 335 355 22 27 74 107 96 87 71 162 132 134 135 139 138 141 138 143 147 151 151 149 148 156 160 162 163 165 165 164 165 170
342 338 341 348 332 327 332 328 332 335 335 356 5 14 22 38 57 75 92 95 15 112 121 123 128 130 131 135 135 141 145 147 151 155 157 160 153 155 161 165 168 167 167 170
329 336 331 330 334 312 314 325 330 323 332 350 358 8 29 32 50 51 34 119 125 119 110 113 124 130 134 134 134 138 142 145 144 141 142 148 154 157 163 163 167 170 171 175
324 326 325 324 324 312 305 306 315 313 323 332 325 341 9 356 47 59 83 67 114 103 113 115 121 123 132 121 129 132 131 134 140 142 145 148 150 154 159 168 164 154 147 143
312 315 309 307 299 322 328 330 287 307 299 302 306 318 236 239 312 359 349 152 137 128 127 141 144 141 131 133 129 130 132 132 135 138 140 142 148 142 138 141 136 128 122 122
304 292 294 316 319 315 312 321 309 303 295 305 304 310 286 258 211 233 153 174 170 150 136 147 144 142 121 126 133 139 142 144 146 141 143 145 145 141 136 133 137 136 123 122
321 319 312 310 301 311 312 310 303 284 252 278 272 272 300 321 317 121 123 144 152 151 155 156 157 153 144 145 146 146 142 136 139 139 137 134 131 129 129 124 122 124 126 125
334 328 324 319 305 322 317 308 312 307 239 209 252 241 198 158 114 103 119 131 137 151 155 156 157 150 142 141 132 137 133 128 130 130 122 124 121 126 125 122 120 119 119 122